Location: Champs
(48.8539°N, 2.6040°E)
Time: 04:28:11
(UTC+00:00)

H-2A R/B - Pass Details

Date: 26 October 2021
Orbit: 495 x 539 km, 97.3° (Epoch: 27 November)

Event Time Altitude Azimuth Distance (km) Brightness Sun altitude
Rises 05:03:05 0° 12° (NNE) 2,656 6.4 -14.4°
Reaches altitude 10° 05:05:12 10° 13° (NNE) 1,755 5.5 -14.0°
Maximum altitude 05:08:59 90° 14° (NNE) 518 2.6 -13.4°
Drops below altitude 10° 05:12:41 10° 194° (SSW) 1,715 5.2 -12.8°
Sets 05:14:45 0° 195° (SSW) 2,588 6.2 -12.5°
